Погода в Подрезчихе

Россия / Кировская область     59°20′49″N   51°28′09″E
темп.,
°C
ветер,
м/с
пор.,
м/с
влажн.,
%
обл.,
%
осадки,
мм/ч
давл.,
гПа
погр.,
м
12 апреля, пн
пн1200:00+4з299765 0.0 1033273
03:00+1зсз249829 0.0 103575
06:00+1з249879 0.0 1037116
09:00+5з237759 0.0 1039372
12:00+8зсз23594 0.0 1039880
15:00+9зсз12555 0.0 1040873
18:00+5юв11878 0.0 103910
21:00+1ююв23919 0.0 104041
13 апреля, вт
вт1300:000ююз259616 0.0 104089
03:00−1ю259991 0.0 1040104
06:00+2ю3898100 0.0 1038250
09:00+5ююз4994100 0.0 1037393
12:00+10ююз4976100 0.0 1034610
15:00+12ююз41081100 0.0 1032657
18:00+10ююз4129287 0.0 1031492
21:00+8юз41197100 0.0 1030385
14 апреля, ср
ср1400:00+8юз31195100 0.0 1029365
03:00+6ююз3996100 0.0 1029201
06:00+6ююз31090100 0.0 1029238
09:00+12юз4868100 0.0 1028407
12:00+15юз475361 0.0 1027803
15:00+16юз47505 0.0 10251079
18:00+12ююз38685 0.0 1024195
21:00+9ююз311855 0.0 1024222
15 апреля, чт
чт1500:00+7ююз3118612 0.0 1023230
03:00+6ююз311895 0.0 1022211
06:00+7юз3108854 0.0 1021268
09:00+12юз476770 0.0 1020485
12:00+15зюз465097 0.0 10191176
15:00+16з3647100 0.0 10181643
18:00+11с5974100 0.0 1019407
21:00+6ссв488599 0.1 1021492
16 апреля, пт
пт1600:00+4ссв4893100 0.5 1021578
03:00+3ссв3895100 1.1 1022564
06:00+4ссв3782100 0.2 1022732
09:00+6св565672 0.2 10231460
12:00+7ссв5641100 0.0 10241949
15:00+6ссв574199 0.0 10252117
18:00+4ссв47505 0.0 10261020
21:00+1с28685 0.0 1028249